Mullan Pass, ID

10:29 PM PST on January 19, 2018 (GMT -0800)
Mullan Pass

Weather History for KMLP - December, 2013

Change the Weather History Date:

Thursday, December 26, 2013

  Actual Average (K3TH) Record (K3TH)
Temperature  
Mean Temperature 29 °F -  
Max Temperature 33 °F 30 °F 37 °F (2000)
Min Temperature 25 °F 24 °F 12 °F (1996)
Degree Days  
Heating Degree Days 36    
Moisture  
Dew Point 21 °F    
Average Humidity 68    
Maximum Humidity 76    
Minimum Humidity 61    
Precipitation  
Precipitation 0.00 in - - ()
Sea Level Pressure  
Sea Level Pressure 30.29 in    
Wind  
Wind Speed 10 mph (SW)    
Max Wind Speed 13 mph    
Max Gust Speed 23 mph    
Visibility 10 miles    
Events      
Averages and records for this station are not official NWS values.
T = Trace of Precipitation, MM = Missing Value Source: NWS Daily Summary

Daily Weather History Graph

Daily Weather History Graph

Search for Another Location

Airport or City:

Trip Planner

Search our weather history database for the weather conditions in past years. The results will help you decide how hot, cold, wet, or windy it might be!

Date:

Astronomy

Dec. 26, 2013 Rise Set
Actual Time 7:29 AM PST 3:57 PM PST
Civil Twilight 6:53 AM PST 4:33 PM PST
Nautical Twilight 6:14 AM PST 5:12 PM PST
Astronomical Twilight 5:37 AM PST 5:50 PM PST
Moon 12:44 AM PST (12/26) 11:52 AM PST (12/26)
Length of Visible Light 9h 39m
Length of Day
8h 28m
Last Quarter, 37% of the Moon is Illuminated
Dec 26
Last Quarter
Jan 1
New
Jan 7
First Quarter
Jan 15
Full
Jan 23
Last Quarter

Hourly Weather History & Observations

Time (PST) Temp. Windchill Dew Point Humidity Pressure Visibility Wind Dir Wind Speed Gust Speed Precip Events Conditions
12:53 AM 25.0 °F 14.2 °F 16.0 °F 69% 30.39 in 10.0 mi SW 11.5 mph - N/A   Partly Cloudy
1:53 AM 25.0 °F 15.5 °F 17.1 °F 72% 30.40 in 10.0 mi SSW 9.2 mph - N/A   Scattered Clouds
2:53 AM 27.0 °F 16.1 °F 17.1 °F 66% 30.40 in 10.0 mi SW 12.7 mph 19.6 mph N/A   Overcast
3:53 AM 27.0 °F 17.3 °F 17.1 °F 66% 30.39 in 10.0 mi SSW 10.4 mph - N/A   Scattered Clouds
4:53 AM 27.0 °F 16.7 °F 17.1 °F 66% 30.38 in 10.0 mi SW 11.5 mph 18.4 mph N/A   Mostly Cloudy
5:53 AM 27.0 °F 18.0 °F 18.0 °F 69% 30.38 in 10.0 mi SW 9.2 mph - N/A   Clear
6:53 AM 28.9 °F 20.4 °F 18.0 °F 64% 30.38 in 10.0 mi WSW 9.2 mph - N/A   Overcast
7:53 AM 30.0 °F 24.1 °F 19.0 °F 64% 30.37 in 10.0 mi SW 5.8 mph - N/A   Mostly Cloudy
8:53 AM 30.0 °F 21.7 °F 19.0 °F 64% 30.37 in 10.0 mi SW 9.2 mph - N/A   Mostly Cloudy
9:53 AM 30.0 °F 23.2 °F 19.0 °F 64% 30.37 in 10.0 mi Variable 6.9 mph - N/A   Overcast
10:21 AM 30.2 °F 22.6 °F 19.4 °F 64% 30.26 in 10.0 mi WSW 8.1 mph - N/A   Overcast
10:36 AM 30.2 °F 22.6 °F 19.4 °F 64% 30.25 in 10.0 mi SW 8.1 mph - N/A   Overcast
10:53 AM 30.9 °F 24.3 °F 21.9 °F 69% 30.35 in 10.0 mi Variable 6.9 mph - N/A   Overcast
11:14 AM 32.0 °F 24.8 °F 21.2 °F 64% 30.23 in 10.0 mi SW 8.1 mph 18.4 mph N/A   Overcast
11:34 AM 32.0 °F 23.6 °F 21.2 °F 64% 30.23 in 10.0 mi SW 10.4 mph 18.4 mph N/A   Overcast
11:53 AM 32.0 °F 25.6 °F 21.9 °F 66% 30.34 in 10.0 mi SW 6.9 mph - N/A   Overcast
12:07 PM 32.0 °F 25.6 °F 23.0 °F 69% 30.23 in 10.0 mi SW 6.9 mph - N/A   Overcast
12:39 PM 33.8 °F 25.3 °F 24.8 °F 70% 30.22 in 10.0 mi WSW 11.5 mph 18.4 mph N/A   Overcast
12:53 PM 32.0 °F 25.6 °F 25.0 °F 75% 30.32 in 10.0 mi Variable 6.9 mph 16.1 mph N/A   Overcast
1:53 PM 32.0 °F 24.2 °F 23.0 °F 69% 30.32 in 10.0 mi SW 9.2 mph - N/A   Mostly Cloudy
2:53 PM 30.9 °F 23.5 °F 23.0 °F 72% 30.32 in 10.0 mi SSW 8.1 mph - N/A   Clear
3:53 PM 30.9 °F 22.2 °F 23.0 °F 72% 30.32 in 10.0 mi SW 10.4 mph 18.4 mph N/A   Partly Cloudy
4:53 PM 32.0 °F 23.0 °F 19.9 °F 61% 30.17 in 10.0 mi WSW 11.5 mph 23.0 mph N/A   Clear
5:53 PM 30.0 °F 23.2 °F 21.0 °F 69% 30.31 in 10.0 mi SW 6.9 mph - N/A   Clear
6:53 PM 30.9 °F 22.8 °F 21.9 °F 69% 30.16 in 10.0 mi SW 9.2 mph - N/A   Clear
7:53 PM 32.0 °F 23.6 °F 21.9 °F 66% 30.15 in 10.0 mi SW 10.4 mph 19.6 mph N/A   Clear
8:53 PM 30.9 °F 22.8 °F 21.9 °F 69% 30.15 in 10.0 mi SW 9.2 mph 17.3 mph N/A   Clear
9:53 PM 30.9 °F 22.8 °F 24.1 °F 76% 30.16 in 10.0 mi SW 9.2 mph 19.6 mph N/A   Clear
10:53 PM 30.0 °F 21.1 °F 23.0 °F 75% 30.16 in 10.0 mi SSW 10.4 mph - N/A   Clear
11:53 PM 30.9 °F 22.2 °F 23.0 °F 72% 30.15 in 10.0 mi SW 10.4 mph 18.4 mph N/A   Clear